| time (UTC) | temp F | wind direction | speed knots | gust knots | rain 1hr in | rain 24hr in | rain mn in | humidity % | barometer mb |
| 20260504081903 | 35 | 250 | 0.0 | 0.0 | 0.00 | 0.00 | 0.00 | 81 | 963.1 |
| 20260504081358 | 35 | 250 | 0.0 | 0.0 | 0.00 | 0.00 | 0.00 | 81 | 963.1 |
| 20260504080858 | 35 | 250 | 0.0 | 0.0 | 0.00 | 0.00 | 0.00 | 81 | 963.1 |
| 20260504080356 | 35 | 250 | 0.0 | 0.0 | 0.00 | 0.00 | 0.00 | 81 | 963.1 |
| 20260504070353 | 35 | 250 | 0.0 | 0.0 | 0.00 | 0.00 | 0.00 | 82 | 963.2 |
| 20260504060109 | 37 | 250 | 0.0 | 0.9 | 0.00 | 0.00 | 0.00 | 82 | 963.1 |
| 20260504050747 | 37 | 229 | 0.0 | 0.0 | 0.00 | 0.00 | 0.00 | 81 | 963.3 |
| 20260504050241 | 37 | 229 | 0.0 | 0.0 | 0.00 | 0.00 | 0.00 | 81 | 963.3 |
| 20260504045735 | 38 | 229 | 0.0 | 0.0 | 0.00 | 0.00 | 0.00 | 81 | 963.4 |
| 20260504045230 | 38 | 229 | 0.0 | 0.0 | 0.00 | 0.00 | 0.00 | 81 | 963.4 |
| 20260504044723 | 38 | 229 | 0.0 | 0.0 | 0.00 | 0.00 | 0.00 | 81 | 963.4 |
| 20260504044217 | 38 | 229 | 0.0 | 0.0 | 0.00 | 0.00 | 0.00 | 81 | 963.5 |
| 20260504043711 | 38 | 229 | 0.0 | 0.0 | 0.00 | 0.00 | 0.00 | 81 | 963.4 |
| 20260504043205 | 39 | 229 | 0.0 | 0.0 | 0.00 | 0.00 | 0.00 | 81 | 963.4 |
| 20260504042659 | 39 | 229 | 0.0 | 0.0 | 0.00 | 0.00 | 0.00 | 81 | 963.4 |
| 20260504042153 | 39 | 229 | 0.0 | 0.0 | 0.00 | 0.00 | 0.00 | 80 | 963.4 |
| 20260504041648 | 39 | 229 | 0.0 | 0.0 | 0.00 | 0.00 | 0.00 | 80 | 963.4 |
| 20260504041141 | 39 | 229 | 0.0 | 0.0 | 0.00 | 0.00 | 0.00 | 79 | 963.4 |
| 20260504040635 | 39 | 229 | 0.0 | 0.0 | 0.00 | 0.00 | 0.00 | 79 | 963.4 |
| 20260504040351 | 39 | 229 | 0.0 | 0.0 | 0.00 | 0.00 | 0.00 | 79 | 963.4 |
| 20260504035623 | 39 | 229 | 0.0 | 0.0 | 0.00 | 0.00 | 0.00 | 78 | 963.4 |
| 20260504035118 | 40 | 229 | 0.0 | 0.0 | 0.00 | 0.00 | 0.00 | 78 | 963.4 |
| 20260504034612 | 40 | 229 | 0.0 | 0.0 | 0.00 | 0.00 | 0.00 | 78 | 963.3 |
| 20260504034326 | 40 | 229 | 0.0 | 0.0 | 0.00 | 0.00 | 0.00 | 78 | 963.3 |
| 20260504033600 | 40 | 229 | 0.0 | 0.0 | 0.00 | 0.00 | 0.00 | 78 | 963.2 |
| 20260504033053 | 41 | 229 | 0.0 | 0.0 | 0.00 | 0.00 | 0.00 | 77 | 963.2 |
| 20260504032548 | 41 | 229 | 0.0 | 0.0 | 0.00 | 0.00 | 0.00 | 77 | 963.1 |
| 20260504032312 | 41 | 229 | 0.0 | 0.0 | 0.00 | 0.00 | 0.00 | 76 | 963.1 |
| 20260504031536 | 41 | 229 | 0.0 | 0.0 | 0.00 | 0.00 | 0.00 | 75 | 963.1 |
| 20260504031257 | 42 | 229 | 0.0 | 0.0 | 0.00 | 0.00 | 0.00 | 74 | 963.1 |
| 20260504030752 | 42 | 229 | 0.0 | 0.0 | 0.00 | 0.00 | 0.00 | 75 | 963.1 |
| 20260504030017 | 42 | 229 | 0.0 | 0.0 | 0.00 | 0.00 | 0.00 | 74 | 963.0 |
| 20260504025511 | 42 | 229 | 0.0 | 0.0 | 0.00 | 0.00 | 0.00 | 74 | 963.0 |
| 20260504025005 | 42 | 229 | 0.0 | 0.0 | 0.00 | 0.00 | 0.00 | 74 | 963.0 |
| 20260504024459 | 42 | 229 | 0.0 | 0.0 | 0.00 | 0.00 | 0.00 | 74 | 963.1 |
| 20260504023955 | 42 | 229 | 0.0 | 0.0 | 0.00 | 0.00 | 0.00 | 73 | 963.1 |
| 20260504023447 | 42 | 229 | 0.0 | 0.0 | 0.00 | 0.00 | 0.00 | 73 | 963.1 |
| 20260504023209 | 43 | 229 | 0.0 | 0.0 | 0.00 | 0.00 | 0.00 | 73 | 963.0 |
| 20260504022701 | 43 | 229 | 0.0 | 0.9 | 0.00 | 0.00 | 0.00 | 73 | 963.0 |
| 20260504021929 | 43 | 229 | 0.0 | 0.9 | 0.00 | 0.00 | 0.00 | 73 | 962.9 |
| 20260504021423 | 43 | 224 | 0.0 | 0.0 | 0.00 | 0.00 | 0.00 | 71 | 962.9 |
| 20260504020917 | 44 | 229 | 0.0 | 0.0 | 0.00 | 0.00 | 0.00 | 70 | 962.9 |
| 20260504020412 | 44 | 229 | 0.0 | 0.0 | 0.00 | 0.00 | 0.00 | 70 | 962.9 |
| 20260504020123 | 44 | 229 | 0.0 | 0.0 | 0.00 | 0.00 | 0.00 | 70 | 962.9 |
| 20260504015629 | 45 | 229 | 0.0 | 0.0 | 0.00 | 0.00 | 0.00 | 69 | 962.8 |
| 20260504014853 | 45 | 229 | 0.0 | 0.0 | 0.00 | 0.00 | 0.00 | 68 | 962.8 |
| 20260504014348 | 45 | 229 | 0.0 | 0.0 | 0.00 | 0.00 | 0.00 | 68 | 962.8 |
| 20260504013841 | 46 | 229 | 0.0 | 0.0 | 0.00 | 0.00 | 0.00 | 67 | 962.8 |
| 20260504013335 | 46 | 229 | 0.0 | 0.0 | 0.00 | 0.00 | 0.00 | 66 | 962.8 |
| 20260504013311 | 47 | 229 | 0.0 | 0.0 | 0.00 | 0.00 | 0.00 | 64 | 962.8 |
| 20260504012323 | 47 | 229 | 0.0 | 0.0 | 0.00 | 0.00 | 0.00 | 63 | 962.7 |
| 20260504011817 | 47 | 229 | 0.0 | 0.0 | 0.00 | 0.00 | 0.00 | 63 | 962.6 |
| 20260504011312 | 48 | 229 | 0.0 | 0.0 | 0.00 | 0.00 | 0.00 | 63 | 962.6 |
| 20260504010805 | 48 | 229 | 0.0 | 0.0 | 0.00 | 0.00 | 0.00 | 62 | 962.6 |
| 20260504010259 | 49 | 229 | 0.0 | 0.0 | 0.00 | 0.00 | 0.00 | 58 | 962.5 |
| 20260504005753 | 49 | 231 | 0.0 | 0.0 | 0.00 | 0.00 | 0.00 | 55 | 962.5 |
| 20260504005247 | 50 | 231 | 0.0 | 0.0 | 0.00 | 0.00 | 0.00 | 55 | 962.4 |
| 20260504004742 | 51 | 231 | 0.0 | 0.0 | 0.00 | 0.00 | 0.00 | 54 | 962.3 |
| 20260504004241 | 52 | 231 | 0.0 | 0.0 | 0.00 | 0.00 | 0.00 | 52 | 962.3 |
| 20260504003743 | 53 | 231 | 0.0 | 0.0 | 0.00 | 0.00 | 0.00 | 51 | 962.3 |
| 20260504003243 | 53 | 231 | 0.0 | 0.0 | 0.00 | 0.00 | 0.00 | 51 | 962.3 |
| 20260504002743 | 54 | 231 | 0.0 | 0.0 | 0.00 | 0.00 | 0.00 | 45 | 962.2 |
| 20260504002243 | 55 | 231 | 0.0 | 0.0 | 0.00 | 0.00 | 0.00 | 44 | 962.2 |
| 20260504001743 | 56 | 231 | 0.0 | 0.9 | 0.00 | 0.00 | 0.00 | 42 | 962.1 |
| 20260504001504 | 56 | 231 | 0.0 | 0.9 | 0.00 | 0.00 | 0.00 | 41 | 962.1 |
| 20260504000742 | 57 | 231 | 0.0 | 0.9 | 0.00 | 0.00 | 0.00 | 40 | 962.1 |
| 20260504000244 | 57 | 248 | 0.0 | 1.7 | 0.00 | 0.00 | 0.00 | 40 | 962.1 |
| 20260503235739 | 58 | 237 | 0.9 | 2.6 | 0.00 | 0.00 | 0.00 | 39 | 962.1 |
| 20260503235239 | 58 | 274 | 0.9 | 5.2 | 0.00 | 0.00 | 0.00 | 38 | 962.0 |
| 20260503234739 | 58 | 248 | 1.7 | 5.2 | 0.00 | 0.00 | 0.00 | 38 | 961.9 |
| 20260503234506 | 58 | 196 | 0.9 | 5.2 | 0.00 | 0.00 | 0.00 | 37 | 961.8 |
| 20260503233738 | 58 | 233 | 0.0 | 2.6 | 0.00 | 0.00 | 0.00 | 37 | 961.8 |
| 20260503233500 | 59 | 255 | 0.9 | 3.5 | 0.00 | 0.00 | 0.00 | 36 | 961.7 |
| 20260503232742 | 59 | 231 | 1.7 | 5.2 | 0.00 | 0.00 | 0.00 | 36 | 961.7 |
| 20260503232243 | 59 | 212 | 1.7 | 6.1 | 0.00 | 0.00 | 0.00 | 35 | 961.7 |
| 20260503232227 | 60 | 218 | 0.9 | 6.1 | 0.00 | 0.00 | 0.00 | 35 | 961.7 |
| 20260503231239 | 60 | 218 | 1.7 | 6.1 | 0.00 | 0.00 | 0.00 | 35 | 961.7 |
| 20260503231001 | 60 | 72 | 1.7 | 7.8 | 0.00 | 0.00 | 0.00 | 35 | 961.7 |
| 20260503230237 | 60 | 241 | 1.7 | 7.8 | 0.00 | 0.00 | 0.00 | 34 | 961.7 |
| 20260503225735 | 61 | 245 | 2.6 | 7.8 | 0.00 | 0.00 | 0.00 | 34 | 961.7 |
| 20260503225503 | 61 | 240 | 2.6 | 7.8 | 0.00 | 0.00 | 0.00 | 33 | 961.7 |
| 20260503224733 | 61 | 226 | 2.6 | 8.7 | 0.00 | 0.00 | 0.00 | 33 | 961.7 |
| 20260503224233 | 61 | 181 | 2.6 | 8.7 | 0.00 | 0.00 | 0.00 | 33 | 961.7 |
| 20260503223735 | 62 | 203 | 1.7 | 6.1 | 0.00 | 0.00 | 0.00 | 33 | 961.6 |
| 20260503223236 | 62 | 248 | 1.7 | 8.7 | 0.00 | 0.00 | 0.00 | 32 | 961.6 |
| 20260503222733 | 62 | 255 | 2.6 | 9.6 | 0.00 | 0.00 | 0.00 | 33 | 961.7 |
| 20260503222235 | 62 | 152 | 1.7 | 9.6 | 0.00 | 0.00 | 0.00 | 33 | 961.7 |
| 20260503221735 | 63 | 194 | 0.9 | 5.2 | 0.00 | 0.00 | 0.00 | 33 | 961.7 |
| 20260503221234 | 62 | 245 | 1.7 | 7.8 | 0.00 | 0.00 | 0.00 | 33 | 961.7 |
| 20260503220958 | 62 | 239 | 1.7 | 7.8 | 0.00 | 0.00 | 0.00 | 33 | 961.7 |
| 20260503220233 | 62 | 172 | 2.6 | 7.8 | 0.00 | 0.00 | 0.00 | 33 | 961.7 |
| 20260503215735 | 62 | 240 | 2.6 | 7.0 | 0.00 | 0.00 | 0.00 | 34 | 961.8 |
| 20260503215234 | 62 | 231 | 2.6 | 7.0 | 0.00 | 0.00 | 0.00 | 34 | 961.8 |
| 20260503214735 | 62 | 214 | 3.5 | 9.6 | 0.00 | 0.00 | 0.00 | 33 | 961.7 |
| 20260503214228 | 63 | 243 | 2.6 | 9.6 | 0.00 | 0.00 | 0.00 | 32 | 961.8 |
| 20260503213723 | 63 | 236 | 1.7 | 6.1 | 0.00 | 0.00 | 0.00 | 32 | 961.8 |
| 20260503213443 | 62 | 101 | 2.6 | 6.1 | 0.00 | 0.00 | 0.00 | 35 | 961.7 |
| 20260503212709 | 62 | 226 | 2.6 | 8.7 | 0.00 | 0.00 | 0.00 | 34 | 961.6 |
| 20260503212205 | 62 | 132 | 3.5 | 12.2 | 0.00 | 0.00 | 0.00 | 34 | 961.7 |
| 20260503211658 | 62 | 246 | 3.5 | 12.2 | 0.00 | 0.00 | 0.00 | 33 | 961.7 |
| 20260503211158 | 62 | 176 | 1.7 | 11.3 | 0.00 | 0.00 | 0.00 | 35 | 961.6 |
| 20260503210655 | 61 | 217 | 1.7 | 6.1 | 0.00 | 0.00 | 0.00 | 36 | 961.7 |
| 20260503210155 | 61 | 270 | 1.7 | 6.1 | 0.00 | 0.00 | 0.00 | 35 | 961.6 |
| 20260503205654 | 61 | 253 | 1.7 | 7.8 | 0.00 | 0.00 | 0.00 | 34 | 961.7 |
| 20260503205154 | 62 | 70 | 2.6 | 7.8 | 0.00 | 0.00 | 0.00 | 34 | 961.7 |
| 20260503204654 | 62 | 215 | 3.5 | 7.8 | 0.00 | 0.00 | 0.00 | 34 | 961.8 |
| 20260503204154 | 62 | 264 | 2.6 | 9.6 | 0.00 | 0.00 | 0.00 | 35 | 961.8 |
| 20260503203652 | 62 | 159 | 1.7 | 9.6 | 0.00 | 0.00 | 0.00 | 33 | 961.7 |
| 20260503203154 | 62 | 254 | 1.7 | 8.7 | 0.00 | 0.00 | 0.00 | 34 | 961.7 |
| 20260503202649 | 62 | 110 | 2.6 | 8.7 | 0.00 | 0.00 | 0.00 | 34 | 961.9 |
| 20260503202147 | 62 | 150 | 2.6 | 7.8 | 0.00 | 0.00 | 0.00 | 34 | 961.8 |
| 20260503201648 | 62 | 203 | 2.6 | 7.8 | 0.00 | 0.00 | 0.00 | 34 | 961.9 |
| 20260503201148 | 63 | 242 | 2.6 | 11.3 | 0.00 | 0.00 | 0.00 | 33 | 961.9 |
| 20260503200915 | 62 | 199 | 2.6 | 11.3 | 0.00 | 0.00 | 0.00 | 33 | 962.0 |
| 20260503200413 | 63 | 183 | 3.5 | 7.8 | 0.00 | 0.00 | 0.00 | 32 | 962.1 |
| 20260503195910 | 62 | 209 | 2.6 | 7.0 | 0.00 | 0.00 | 0.00 | 34 | 962.0 |
| 20260503195143 | 62 | 248 | 2.6 | 8.7 | 0.00 | 0.00 | 0.00 | 37 | 962.1 |
| 20260503194643 | 62 | 167 | 3.5 | 8.7 | 0.00 | 0.00 | 0.00 | 33 | 962.3 |
| 20260503194143 | 62 | 212 | 3.5 | 10.4 | 0.00 | 0.00 | 0.00 | 33 | 962.2 |
| 20260503193641 | 63 | 229 | 2.6 | 10.4 | 0.00 | 0.00 | 0.00 | 33 | 962.3 |
| 20260503193403 | 63 | 230 | 2.6 | 9.6 | 0.00 | 0.00 | 0.00 | 33 | 962.3 |
| 20260503192643 | 62 | 209 | 2.6 | 7.0 | 0.00 | 0.00 | 0.00 | 34 | 962.4 |
| 20260503192139 | 62 | 238 | 1.7 | 6.1 | 0.00 | 0.00 | 0.00 | 33 | 962.4 |
| 20260503191640 | 61 | 146 | 1.7 | 7.0 | 0.00 | 0.00 | 0.00 | 34 | 962.5 |
| 20260503191141 | 61 | 185 | 3.5 | 15.6 | 0.00 | 0.00 | 0.00 | 34 | 962.6 |
| 20260503190638 | 61 | 177 | 3.5 | 15.6 | 0.00 | 0.00 | 0.00 | 31 | 962.6 |
| 20260503190405 | 62 | 245 | 2.6 | 12.2 | 0.00 | 0.00 | 0.00 | 32 | 962.7 |
| 20260503185638 | 62 | 60 | 2.6 | 7.8 | 0.00 | 0.00 | 0.00 | 35 | 962.7 |
| 20260503185138 | 62 | 259 | 2.6 | 7.8 | 0.00 | 0.00 | 0.00 | 32 | 962.9 |
| 20260503184637 | 62 | 69 | 2.6 | 7.8 | 0.00 | 0.00 | 0.00 | 38 | 962.8 |
| 20260503184402 | 62 | 236 | 1.7 | 7.0 | 0.00 | 0.00 | 0.00 | 33 | 962.9 |
| 20260503183638 | 62 | 128 | 2.6 | 8.7 | 0.00 | 0.00 | 0.00 | 35 | 962.9 |
| 20260503183132 | 61 | 210 | 1.7 | 8.7 | 0.00 | 0.00 | 0.00 | 31 | 963.0 |
| 20260503182624 | 62 | 208 | 2.6 | 9.6 | 0.00 | 0.00 | 0.00 | 36 | 963.0 |
| 20260503182118 | 61 | 262 | 2.6 | 9.6 | 0.00 | 0.00 | 0.00 | 34 | 963.0 |
| 20260503181612 | 62 | 57 | 2.6 | 7.8 | 0.00 | 0.00 | 0.00 | 35 | 962.9 |
| 20260503181107 | 62 | 283 | 3.5 | 7.8 | 0.00 | 0.00 | 0.00 | 33 | 963.1 |
| 20260503180601 | 61 | 195 | 2.6 | 7.0 | 0.00 | 0.00 | 0.00 | 36 | 963.1 |
| 20260503180053 | 61 | 224 | 2.6 | 13.0 | 0.00 | 0.00 | 0.00 | 34 | 963.2 |
| 20260503175547 | 60 | 196 | 2.6 | 13.0 | 0.00 | 0.00 | 0.00 | 36 | 963.4 |
| 20260503175039 | 60 | 224 | 1.7 | 6.1 | 0.00 | 0.00 | 0.00 | 35 | 963.2 |
| 20260503174534 | 60 | 237 | 2.6 | 9.6 | 0.00 | 0.00 | 0.00 | 33 | 963.1 |
| 20260503174028 | 60 | 227 | 2.6 | 9.6 | 0.00 | 0.00 | 0.00 | 36 | 963.3 |
| 20260503173748 | 60 | 254 | 1.7 | 7.0 | 0.00 | 0.00 | 0.00 | 34 | 963.3 |
| 20260503173016 | 60 | 255 | 1.7 | 6.1 | 0.00 | 0.00 | 0.00 | 35 | 963.3 |
| 20260503172510 | 60 | 124 | 2.6 | 9.6 | 0.00 | 0.00 | 0.00 | 34 | 963.4 |
| 20260503172004 | 59 | 141 | 2.6 | 9.6 | 0.00 | 0.00 | 0.00 | 36 | 963.4 |
| 20260503171716 | 59 | 248 | 2.6 | 7.0 | 0.00 | 0.00 | 0.00 | 34 | 963.4 |
| 20260503170952 | 58 | 46 | 3.5 | 16.5 | 0.00 | 0.00 | 0.00 | 33 | 963.6 |
| 20260503170446 | 59 | 191 | 3.5 | 16.5 | 0.00 | 0.00 | 0.00 | 34 | 963.7 |
| 20260503150728 | 55 | 217 | 1.7 | 7.8 | 0.00 | 0.00 | 0.00 | 41 | 964.8 |
| 20260503150439 | 55 | 245 | 1.7 | 7.0 | 0.00 | 0.00 | 0.00 | 41 | 964.8 |
| 20260503140110 | 52 | 248 | 2.6 | 10.4 | 0.00 | 0.00 | 0.00 | 47 | 964.9 |
| 20260503131109 | 50 | 212 | 1.7 | 6.1 | 0.00 | 0.00 | 0.00 | 46 | 965.2 |
| 20260503130605 | 49 | 207 | 1.7 | 6.1 | 0.00 | 0.00 | 0.00 | 46 | 965.2 |
| 20260503130106 | 49 | 243 | 0.9 | 7.0 | 0.00 | 0.00 | 0.00 | 48 | 965.2 |
| 20260503110555 | 42 | 245 | 0.0 | 7.0 | 0.00 | 0.00 | 0.00 | 62 | 964.6 |